Location: Chittendens Corners
(41.2320°N, 81.4940°W)
Time: 09:34:33
(UTC+00:00)

Cosmos 1939 Rocket - Pass Details

Date: 29 October 2020
Orbit: 532 x 584 km, 97.4° (Epoch: 27 November)

Event Time Altitude Azimuth Distance (km) Brightness Sun altitude
Rises 23:16:35 0° 155° (SSE) 2,729 6.2 -10.4°
Reaches altitude 10° 23:18:45 10° 151° (SSE) 1,830 5.3 -10.8°
Maximum altitude 23:22:36 53° 74° (ENE) 683 2.9 -11.5°
Drops below altitude 10° 23:26:25 10° 358° (N) 1,816 5.4 -12.2°
Sets 23:28:34 0° 354° (N) 2,706 6.3 -12.6°
